User: anonymous
Location: Unspecified
(0.0000°N, 0.0000°E)
Time: 08:10:38
(UTC+02:00)
Language:

Gurwin Techsat 1B - Orbit

View from above orbital plane
View from above orbital plane
View from above satellite
View from above satellite

Ground track
Ground track

The orbit data is extracted from the following two-line orbital elements,

1 25397U 98043D   14264.10923791  .00000046  00000-0  38669-4 0  4530
2 25397 098.4805 218.5694 0002043 065.8474 354.7456 14.23462229841518
Epoch (UTC): 21 September 2014 02:37:18
Eccentricity: 0.0002043
inclination: 98.4805°
perigee height: 812 km
apogee height: 815 km
right ascension of ascending node: 218.5694°
argument of perigee: 65.8474°
revolutions per day: 14.23462229
mean anomaly at epoch: 354.7456°
orbit number at epoch: 84151

The dashed part of the orbit path shows where the satellite is in the earth's shadow,  

DLR